{"data":{"norad_id":64862,"epoch":"2026-09-20T11:59:17.063520Z","epoch_age_seconds":124212,"freshness":"FRESH","line1":"1 64862U 25152W   26263.49950305  .00014590  00000+0  45331-3 0  9992","line2":"2 64862  97.2846 114.0639 0002329  93.2267 266.9242 15.33449016 64820","mean_motion":15.33449016,"eccentricity":0.0002329,"inclination_deg":97.2846,"raan_deg":114.0639,"arg_perigee_deg":93.2267,"mean_anomaly_deg":266.9242,"bstar":0.00045331,"rev_number":6482,"period_min":93.905958722791,"perigee_km":463.93733538394,"apogee_km":467.12511604347,"semimajor_km":6843.6682257137,"source":"CELESTRAK","updated_at":"2026-09-21T09:00:35.452701Z"}}